Location: Holyhead Bay
(53.3667°N, 4.6667°W)
Time: 10:28:15
(UTC+00:00)

Cosmos 2360 Rocket - Pass Details

Date: 13 April 2021
Orbit: 833 x 845 km, 71.0° (Epoch: 08 May)

Event Time Altitude Azimuth Distance (km) Brightness Sun altitude
Rises 21:50:55 0° 319° (NW) 3,415 7.0 -19.8°
Reaches altitude 10° 21:54:14 10° 299° (WNW) 2,473 5.6 -20.1°
Maximum altitude 21:57:39 17° 262° (W) 2,035 4.5 -20.4°
Drops below altitude 10° 22:01:04 10° 224° (SW) 2,458 4.5 -20.8°
Enters shadow 22:02:51 - 212° (SSW) 2,922 4.8 -20.9°
